LANDSAT 4 1 13367U 82072A 08286.57587028 .00000146 00000-0 16290-4 0 8458 2 13367 098.1967 181.7563 0020239 084.3878 275.9652 15.02112124407340 TDRS 1 1 13969U 83026B 08286.33341078 -.00000288 00000-0 10000-3 0 7272 2 13969 013.1476 011.1365 0025647 224.8337 216.5852 01.00274261 66512 LANDSAT 5 1 14780U 84021A 08286.77397904 .00000036 00000-0 17977-4 0 8730 2 14780 098.1375 350.7995 0007348 142.1470 218.0241 14.57146776309350 ERBS 1 15354U 84108B 08286.89806786 .00000859 00000-0 60041-4 0 9420 2 15354 056.9854 096.0939 0015392 353.8069 006.2782 15.15603279314560 TDRS 3 1 19548U 88091B 08285.83543348 -.00000180 +00000-0 +10000-3 0 01316 2 19548 011.3561 042.3590 0015897 298.7766 065.2613 01.00269359060659 TDRS 4 1 19883U 89021B 08283.39075543 -.00000273 00000-0 10000-3 0 4392 2 19883 009.9421 054.6367 0002984 139.6914 278.6084 01.00263857244202 HST 1 20580U 90037B 08285.41784545 +.00000318 +00000-0 +11716-4 0 02495 2 20580 028.4704 285.1185 0003900 176.8859 183.1756 15.00414842812458 TDRS 5 1 21639U 91054B 08285.43022888 .00000110 00000-0 10000-3 0 3156 2 21639 009.2810 058.5149 0003274 131.9696 174.6935 01.00286780 62966 UARS 1 21701U 91063B 08286.54621189 .00002983 00000-0 47730-4 0 4879 2 21701 056.9744 008.8050 0086024 052.8365 308.0511 15.52843765940724 TOPEX/POSEIDON 1 22076U 92052A 08286.90523358 -.00000038 00000-0 10000-3 0 2555 2 22076 066.0374 224.3523 0007903 266.1918 093.8189 12.80944252756573 TDRS 6 1 22314U 93003B 08286.53970850 .00000095 00000-0 10000-3 0 3620 2 22314 008.6163 061.6561 0002760 107.0956 233.2773 01.00276868 57698 TDRS 7 1 23613U 95035B 08286.61506552 .00000133 00000-0 10000-3 0 3963 2 23613 010.4997 050.8806 0003796 135.4601 265.9116 01.00273940 48513 XTE 1 23757U 95074A 08286.57839600 .00001214 00000-0 27658-4 0 7180 2 23757 022.9835 359.3143 0008996 133.7045 226.4217 15.26913035707876 TRMM 1 25063U 97074A 08285.81613068 +.00002725 +00000-0 +38490-4 0 08925 2 25063 034.9656 181.3048 0001449 270.5312 089.5269 15.56097048621388 ETS 7 1 25064U 97074B 08286.88337597 .00000662 00000-0 27368-4 0 6450 2 25064 034.9587 152.8845 0002079 227.8574 132.1964 15.24899620603237 ISS (ZARYA) 1 25544U 98067A 08286.56127851 .00008196 00000-0 65446-4 0 4278 2 25544 051.6427 134.5774 0003862 208.0945 175.0815 15.72157843567003 LANDSAT 7 1 25682U 99020A 08286.81138637 -.00000430 00000-0 -85272-4 0 9643 2 25682 098.2421 351.9695 0000608 112.6879 247.4381 14.57091352505058 FUSE 1 1 25791U 99035A 08285.73712633 .00000108 00000-0 -21772-4 0 2889 2 25791 024.9851 050.9835 0010833 184.0438 176.0023 14.41777006490502 TERRA 1 25994U 99068A 08286.76291338 -.00000028 00000-0 38973-5 0 351 2 25994 098.2018 359.2044 0001591 092.2237 267.9127 14.57117425469120 TDRS 8 1 26388U 00034A 08285.70247602 -.00000215 00000-0 10000-3 0 8188 2 26388 000.8888 132.5908 0004891 059.0688 170.8676 01.00278445 30444 EO 1 1 26619U 00075A 08286.79736425 -.00000388 00000-0 -68381-4 0 4045 2 26619 098.1531 351.7066 0009095 008.7915 351.3430 14.61787581420120 TIMED 1 26998U 01055B 08286.67081073 .00000214 00000-0 30051-4 0 1320 2 26998 074.0721 119.5095 0001979 285.7493 074.3453 14.84025298370808 TDRS 9 1 27389U 02011A 08284.09254002 -.00000279 00000-0 10000-3 0 2814 2 27389 002.9156 243.0124 0005629 319.3801 147.4598 01.00262019 25676 AQUA 1 27424U 02022A 08286.16543099 .00000029 00000-0 16495-4 0 9996 2 27424 098.2394 225.4111 0001166 085.1829 274.9501 14.57103786342648 TDRS 10 1 27566U 02055A 08286.81082576 -.00000260 00000-0 10000-3 0 83 2 27566 001.7039 278.8828 0002994 268.9555 085.0542 01.00271839 21520 SORCE 1 27651U 03004A 08285.90241330 +.00000044 +00000-0 +21339-4 0 07294 2 27651 039.9966 243.1141 0025319 060.3392 299.9919 14.82109931309440 GALEX 1 27783U 03017A 08285.52043765 .00000192 00000-0 17845-4 0 5091 2 27783 029.0014 332.3056 0004263 172.1953 187.8678 14.59704803291413 GP-B 1 28230U 04014A 08286.57180501 .00000089 00000-0 10634-4 0 3400 2 28230 089.9523 159.4691 0002181 065.1906 294.9535 14.75936235241253 AURA 1 28376U 04026A 08285.75938255 .00000119 00000-0 36576-4 0 3283 2 28376 098.2388 227.1611 0001318 089.2113 270.9236 14.57099716225639 SWIFT 1 28485U 04047A 08285.81039906 .00000463 00000-0 55080-5 0 1270 2 28485 020.5547 106.8528 0014742 209.2686 150.6886 14.92448179212517